{"data":{"norad_id":68894,"intl_designator":"2026-096B","name":"FALCON HEAVY R/B","alt_names":[],"object_type":"ROCKET_BODY","status":"UNKNOWN","operator":null,"country":"US","launch_date":"2026-04-29","launch_site_code":"AFETR","launch_vehicle":null,"mission":null,"orbit_class":"UNKNOWN","rcs_meters":null,"size_class":null,"mass_kg":null,"dimensions":null,"purposes":[],"wikipedia_slug":null,"has_3d_model":false,"image_url":null,"decayed_at":null,"tle_current":{"epoch":"2026-05-28T12:59:12.768000Z","epoch_age_seconds":9947974,"freshness":"OLD","line1":"1 68894U 26096B   26148.54112000 -.00000109  00000+0  00000+0 0  9991","line2":"2 68894   2.6631 279.9020 1483149 181.1225 178.7242  1.35919126   394","mean_motion":1.35919126,"eccentricity":0.1483149,"inclination_deg":2.6631,"raan_deg":279.902,"arg_perigee_deg":181.1225,"mean_anomaly_deg":178.7242,"bstar":0,"rev_number":39,"period_min":1059.453545927,"perigee_km":22941.629588969,"apogee_km":33153.287042332,"semimajor_km":34425.59531565,"source":"CELESTRAK","updated_at":"2026-05-29T09:03:27.966347Z"}}}